Location: Newark
(39.9900°N, 9.6856°E)
Time: 03:16:05
(UTC+00:00)

ISS - Visible Passes

Search period start: 15 November 2019 00:00
Search period end: 25 November 2019 00:00
Orbit: 412 x 421 km, 51.6° (Epoch: 15 November)

Date Brightness Start Highest point End Pass type
(mag) Time Alt. Az. Time Alt. Az. Time Alt. Az.
19 Nov -1.1 18:14:33 10° SSW 18:15:08 14° SSW 18:15:08 14° SSW visible
20 Nov -2.2 17:26:45 10° S 17:29:10 22° SE 17:29:10 22° SE visible
21 Nov -1.5 16:39:38 10° SSE 16:41:11 13° SE 16:42:44 10° E visible
21 Nov -1.8 18:14:11 10° WSW 18:16:01 30° WSW 18:16:01 30° WSW visible
22 Nov -3.8 17:25:47 10° SW 17:29:06 67° SE 17:29:50 48° ENE visible
23 Nov -2.9 16:37:38 10° SSW 16:40:44 36° SE 16:43:34 12° ENE visible
23 Nov -1.6 18:14:32 10° W 18:16:29 24° WNW 18:16:29 24° WNW visible
24 Nov -2.9 17:25:44 10° WSW 17:28:57 43° NNW 17:30:08 30° NNE visible
